Miscellaneous Local Product
Issued by NWS Hastings, NE

Home | Current Version | Previous Version | Text Only | Print | Product List | Glossary On
Versions: 1 2 3 4 5 6 7 8 9 10 11 12 13 14 15 16 17 18 19 20 21 22 23 24 25 26 27 28 29 30 31 32 33 34 35 36 37 38 39 40 41 42 43 44 45 46 47 48 49 50
000
AXUS43 KGID 280402
MISGRI

GID CWA HOURLY WEATHER ROUNDUP
NATIONAL WEATHER SERVICE HASTINGS NE
1100 PM CDT MON JUL 27 2015

NOTE: "FAIR" INDICATES FEW OR NO CLOUDS BELOW 12,000 FEET WITH NO
SIGNIFICANT WEATHER AND/OR OBSTRUCTIONS TO VISIBILITY.

...SOUTH CENTRAL NEBRASKA...

CITY           SKY/WX    TMP DP  RH WIND       PRES   REMARKS
GRAND ISLAND   CLEAR     80  74  81 SE12      29.80R
HASTINGS       CLEAR     82  68  62 S14       29.80S
KEARNEY        CLEAR     81  66  61 SE14G20   29.79S
ORD            PTCLDY    81  74  79 SE17G23   29.75S
YORK           CLEAR     81  77  89 SE10      29.82R
AURORA         PTCLDY    80  77  90 SE10      29.81R
LEXINGTON      CLEAR     82  70  65 SE10      29.78R
HOLDREGE       CLEAR     80  66  61 SE9       29.79R
HEBRON         CLEAR     82  67  60 S10       29.82R

...NEBRASKA PANHANDLE...

CITY           SKY/WX    TMP DP  RH WIND       PRES   REMARKS
CHADRON        PTCLDY    67  59  75 S8        29.74F
ALLIANCE       CLOUDY    68  59  73 E22       29.78R
SCOTTSBLUFF    PTCLDY    70  61  73 CALM      29.78R
SIDNEY         PTCLDY    85  60  42 VRB5G22   29.82R

...WESTERN AND NORTH CENTRAL NEBRASKA...

CITY           SKY/WX    TMP DP  RH WIND       PRES   REMARKS
VALENTINE      MOCLDY    83  71  67 S20G26    29.69F
AINSWORTH      PTCLDY    82  72  69 SE20      29.72F
ONEILL         PTCLDY    81  73  76 SE13      29.76F
BROKEN BOW     CLEAR     79  72  79 SE8       29.76F
IMPERIAL       CLEAR     82  68  62 SE14      29.74S
NORTH PLATTE   PTCLDY    81  70  69 SE13      29.73F
MCCOOK         CLEAR     83  68  60 S17       29.74R

...EASTERN NEBRASKA...

CITY           SKY/WX    TMP DP  RH WIND       PRES   REMARKS
NORFOLK        CLOUDY    81  77  88 SE15      29.79S
SO SIOUX CITY  PTCLDY    76  69  79 SE12      29.83R
TEKAMAH        PTCLDY    76  71  85 SE10      29.83S
COLUMBUS       PTCLDY    81  73  78 SE9G16    29.81R
ALBION         CLEAR     79  72  80 SE9       29.80R
OMAHA EPPLEY   PTCLDY    78  71  79 SE18      29.85S
OFFUTT AFB     PTCLDY    76  71  84 SE13      29.84S
MILLARD        CLEAR     78  72  82 SE10G18   29.84S
LINCOLN        CLEAR     82  77  84 SE16G24   29.83R HX  90
NEBRASKA CITY  CLEAR     76  72  86 SE9       29.87R
BEATRICE       CLEAR     81  75  82 SE8       29.84R
FALLS CITY     CLEAR     77  74  90 SE12      29.87R

...NORTHERN KANSAS...

CITY           SKY/WX    TMP DP  RH WIND       PRES   REMARKS
GOODLAND       PTCLDY    79  67  66 S14       29.81R
HILL CITY      CLEAR     85  69  58 S17G25    29.77R
NORTON         CLEAR     81  63  54 SE13G18   29.77S
PHILLIPSBURG   CLEAR     86  66  51 SE9G16    29.78R
SMITH CENTER   CLEAR     81  66  61 SE14      29.80R
HAYS           PTCLDY    82  64  54 S16       29.81R
RUSSELL        CLEAR     84  69  60 S17G28    29.80R
CONCORDIA      CLEAR     82  67  60 S14       29.83R
SALINA         CLEAR     85  69  58 SE10      29.83R
TOPEKA         CLEAR     83  73  72 SE7       29.88R



USA.gov is the U.S. government's official web portal to all federal, state and local government web resources and services.